DateTimeUTC,F1_A11,F1_S11,BsB_S11,BsG_S11,BsR_S11,BbsB_S11,BbsG_S11,BbsR_S11,BaB_A11,BaG_A11,BaR_A11,Tu_S11,T_S11,Uu_S11,U_S11,P_S11,T1_A11
2021-06-28T23:00:00Z,00000200,20000000,,,,,,,0000.21,-000.18,0000.03,19.2,25.9,11.9,07.9,0665.0,31.2
2021-06-28T23:01:00Z,00000200,20000000,,,,,,,-000.02,0000.48,0000.41,19.2,25.9,11.9,07.9,0665.0,31.2
2021-06-28T23:02:00Z,00000200,20000000,,,,,,,0000.27,-000.36,-000.15,19.2,25.9,11.9,07.9,0665.0,31.2
2021-06-28T23:03:00Z,00000200,60000000,,,,,,,-000.14,0000.35,-000.00,19.2,25.9,11.9,07.9,0664.9,31.2
2021-06-28T23:04:00Z,00000200,40000000,0000.14,0000.59,-000.05,0000.02,-000.06,-000.05,0000.01,-000.05,-000.14,19.4,25.8,11.9,08.1,0665.7,31.2
2021-06-28T23:05:00Z,00000200,00000000,0000.56,0000.05,0000.40,0000.13,0000.19,0000.32,0000.24,0000.06,0000.36,19.4,25.7,11.9,08.1,0665.9,31.2
2021-06-28T23:06:00Z,00000200,00000000,0000.42,0000.09,0000.53,0000.19,0000.19,0000.31,-000.19,-000.20,-000.27,19.4,25.7,11.9,08.1,0665.8,31.2
2021-06-28T23:07:00Z,00000200,00000000,0000.73,0000.42,0000.18,0000.43,-000.01,0000.19,-000.09,0000.25,0000.12,19.4,25.7,11.9,08.2,0665.8,31.2
2021-06-28T23:08:00Z,00000200,00000000,0001.16,0000.33,0000.14,0000.62,0000.20,0000.06,0000.37,-000.23,0000.25,19.4,25.7,11.9,08.1,0665.8,31.2
2021-06-28T23:09:00Z,00000200,00000000,0000.72,0000.22,0000.17,0000.11,0000.24,-000.11,-000.25,0000.14,-000.21,19.4,25.7,11.9,08.1,0665.8,31.2
2021-06-28T23:10:00Z,00000200,00000000,0000.86,0000.11,0000.19,-000.58,0000.25,0000.25,0000.28,0000.06,0000.28,19.4,25.7,12.0,08.2,0665.8,31.2
2021-06-28T23:11:00Z,00000200,00000000,0000.28,0000.12,0000.24,0000.38,0000.45,0000.09,0000.11,-000.13,-000.12,19.3,25.6,11.8,08.0,0665.8,31.2
2021-06-28T23:12:00Z,00000200,00000000,0000.75,0000.33,0000.25,0000.31,0000.36,-000.02,-000.09,0000.24,-000.06,19.3,25.6,11.9,08.1,0665.8,31.2
2021-06-28T23:13:00Z,00000200,00000000,0000.75,0000.18,0000.35,0000.61,0000.26,0000.28,-000.16,-000.04,-000.02,19.3,25.6,11.9,08.1,0665.8,31.2
2021-06-28T23:14:00Z,00000200,00000000,0000.48,0000.03,0000.27,0000.41,0000.24,0000.20,0000.00,0000.02,0000.26,19.3,25.6,11.9,08.1,0665.8,31.2
2021-06-28T23:15:00Z,00000200,00000000,0001.28,0000.01,0000.17,0000.45,0000.02,0000.55,-000.00,0000.24,-000.08,19.3,25.6,11.9,08.1,0665.9,31.2
2021-06-28T23:16:00Z,00000200,00000000,0001.11,-000.07,0000.11,0000.08,0000.29,0000.11,0000.40,0000.06,0000.21,19.3,25.6,11.9,08.1,0665.9,31.2
2021-06-28T23:17:00Z,00000200,00000000,0000.46,0000.17,0000.11,-000.18,0000.27,0000.20,-000.19,0000.13,-000.16,19.3,25.6,11.8,08.1,0665.9,31.2
2021-06-28T23:18:00Z,00000200,00000000,0000.40,0000.12,0000.22,0000.28,0000.63,0000.30,-000.00,-000.25,-000.14,19.3,25.6,11.7,08.0,0666.0,31.2
2021-06-28T23:19:00Z,00000200,00000000,0000.54,0000.24,0000.10,0000.57,0000.43,0000.28,0000.37,0000.06,-000.08,19.3,25.6,11.7,08.0,0666.0,31.2
2021-06-28T23:20:00Z,00000200,00000000,0000.61,0000.09,0000.11,0000.46,0000.14,0000.17,-000.44,-000.05,0000.17,19.3,25.6,11.7,08.0,0665.9,31.2
2021-06-28T23:21:00Z,00000200,00000000,0000.03,0000.05,0000.09,0000.25,0000.17,0000.09,0000.23,-000.05,-000.22,19.3,25.6,11.6,08.0,0665.9,31.2
2021-06-28T23:22:00Z,00000200,00000000,0001.01,0000.15,0000.31,-000.12,0000.07,0000.10,-000.29,-000.02,-000.05,19.3,25.6,11.4,07.8,0665.9,31.2
2021-06-28T23:23:00Z,00000200,00000000,0000.69,0000.36,0000.38,0000.63,0000.08,-000.10,0000.19,0000.12,0000.64,19.3,25.6,11.3,07.7,0665.9,31.2
2021-06-28T23:24:00Z,00000200,00000000,0000.48,-000.43,0000.09,0000.05,0000.50,0000.06,-000.41,0000.17,-000.50,19.3,25.6,11.3,07.7,0665.9,31.2
2021-06-28T23:25:00Z,00000200,00000000,0001.08,0000.19,-000.07,0000.19,0000.19,-000.00,0000.06,-000.28,0000.05,19.3,25.6,11.3,07.7,0666.0,31.2
2021-06-28T23:26:00Z,00000200,00000000,0000.10,0000.39,0000.12,-000.15,-000.10,-000.18,-000.11,-000.19,0000.16,19.3,25.5,11.1,07.6,0665.9,31.2
2021-06-28T23:27:00Z,00000200,00000000,0000.76,0000.16,0000.42,-000.09,-000.02,0000.17,-000.05,-000.12,-000.47,19.3,25.5,11.1,07.6,0665.9,31.2
2021-06-28T23:28:00Z,00000200,00000000,0000.37,0000.00,0000.26,0000.40,0000.09,0000.40,0000.05,-000.16,-000.05,19.3,25.5,10.9,07.5,0665.9,31.2
2021-06-28T23:29:00Z,00000200,00000000,0000.99,0000.07,0000.18,0000.21,0000.42,0000.27,-000.34,0000.15,0000.35,19.2,25.5,10.8,07.4,0665.9,31.2
2021-06-28T23:30:00Z,00000200,00000000,-000.23,-000.21,-000.05,0000.08,0000.09,0000.10,0000.19,0000.40,-000.36,19.2,25.5,10.9,07.5,0665.8,31.2
2021-06-28T23:31:00Z,00000200,00000000,0000.71,0000.39,0000.14,0000.24,0000.46,0000.04,-000.16,-000.16,0000.10,19.2,25.5,10.9,07.4,0665.8,31.2
2021-06-28T23:32:00Z,00000200,00000000,0000.36,-000.13,0000.15,0000.00,0000.20,0000.00,0000.32,-000.40,0000.28,19.2,25.5,10.9,07.4,0665.8,31.2
2021-06-28T23:33:00Z,00000200,00000000,-000.17,0000.23,-000.08,-000.23,-000.01,0000.15,0000.19,0000.57,-000.07,19.3,25.5,10.9,07.5,0665.9,31.2
2021-06-28T23:34:00Z,00000200,00000000,-000.12,-000.07,-000.03,0000.40,-000.06,0000.14,-000.15,-000.02,-000.10,19.3,25.5,10.8,07.4,0665.9,31.2
2021-06-28T23:35:00Z,00000200,00000000,0000.28,0000.11,0000.15,0000.37,-000.08,0000.24,-000.14,-000.44,0000.05,19.4,25.6,10.8,07.4,0666.0,31.2
2021-06-28T23:36:00Z,00000200,00000000,-000.08,0000.13,0000.12,0000.10,0000.19,0000.22,0000.14,0000.12,-000.00,19.4,25.6,10.8,07.4,0666.0,31.2
2021-06-28T23:37:00Z,00000200,00000000,0000.17,-000.09,0000.21,0000.05,0000.23,0000.22,-000.14,-000.25,0000.18,19.4,25.6,10.8,07.4,0666.0,31.2
2021-06-28T23:38:00Z,00000200,00000000,-000.21,0000.27,0000.36,0000.68,0000.35,0000.32,0000.36,0000.21,-000.09,19.4,25.6,10.7,07.4,0665.9,31.2
2021-06-28T23:39:00Z,00000200,00000000,0000.32,-000.37,0000.07,0000.22,0000.04,0000.25,-000.56,0000.16,-000.19,19.4,25.6,10.8,07.4,0666.0,31.2
2021-06-28T23:40:00Z,00000200,00000000,0000.17,0000.12,0000.27,0000.43,0000.33,0000.24,0000.42,0000.23,-000.03,19.3,25.6,10.7,07.3,0665.9,31.2
2021-06-28T23:41:00Z,00000200,00000000,0001.05,0000.01,0000.04,0000.08,0000.18,0000.03,-000.22,-000.03,0000.27,19.3,25.5,10.8,07.4,0666.0,31.2
2021-06-28T23:42:00Z,00000200,00000000,0000.59,0000.26,0000.02,-000.10,0000.09,0000.27,-000.15,-000.67,-000.15,19.3,25.5,10.7,07.3,0666.0,31.2
2021-06-28T23:43:00Z,00000200,00000000,0000.25,-000.07,-000.03,-000.15,0000.40,0000.05,0000.29,0000.30,-000.00,19.3,25.5,10.6,07.3,0665.9,31.2
2021-06-28T23:44:00Z,00000200,00000000,0000.65,0000.44,-000.00,0000.39,0000.20,0000.12,0000.06,0000.13,0000.08,19.2,25.5,10.8,07.4,0665.9,31.2
2021-06-28T23:45:00Z,00000200,00000000,0000.42,-000.01,-000.54,0000.21,0000.04,-000.04,-000.23,-000.53,-000.15,19.2,25.5,10.7,07.3,0666.0,31.2
2021-06-28T23:46:00Z,00000200,00000000,0000.30,0000.09,-000.32,-000.24,0000.28,-000.17,0000.21,0000.55,0000.14,19.2,25.5,10.6,07.3,0666.0,31.2
2021-06-28T23:47:00Z,00000200,00000000,-000.31,0000.18,0000.30,0000.33,-000.03,0000.09,-000.03,0000.14,-000.02,19.2,25.5,10.7,07.3,0666.0,31.2
2021-06-28T23:48:00Z,00000200,00000000,0000.34,0000.15,0000.14,0000.15,0000.16,0000.24,0000.03,0000.27,0000.19,19.3,25.5,10.6,07.3,0666.0,31.2
2021-06-28T23:49:00Z,00000200,00000000,0000.40,-000.12,0000.35,0000.27,0000.53,0000.39,-000.01,-000.10,-000.20,19.4,25.5,10.7,07.4,0665.9,31.2
2021-06-28T23:50:00Z,00000200,00000000,0000.44,0000.05,0000.52,0000.31,0000.35,0000.25,0000.33,-000.17,0000.30,19.4,25.6,10.7,07.3,0666.0,31.2
2021-06-28T23:51:00Z,00000200,00000000,0000.36,0000.28,0000.37,-000.15,0000.28,0000.43,-000.54,0000.09,-000.03,19.4,25.6,10.6,07.3,0666.0,31.2
2021-06-28T23:52:00Z,00000200,00000000,-000.22,0000.31,0000.08,0000.13,0000.09,0000.05,-000.02,-000.55,-000.28,19.4,25.6,10.5,07.3,0665.9,31.2
2021-06-28T23:53:00Z,00000200,00000000,0000.46,-000.08,0000.11,0000.32,0000.03,0000.29,-000.02,-000.00,-000.30,19.4,25.6,10.7,07.3,0666.0,31.2
2021-06-28T23:54:00Z,00000200,00000000,-000.20,0000.33,0000.01,0000.54,0000.08,0000.11,-000.11,0000.44,0000.20,19.4,25.6,10.6,07.3,0665.9,31.2
2021-06-28T23:55:00Z,00000200,00000000,0000.25,0000.13,0000.00,0000.09,0000.45,0000.26,-000.04,-000.48,-000.12,19.4,25.6,10.5,07.2,0666.0,31.2
2021-06-28T23:56:00Z,00000200,00000000,0000.56,0000.05,0000.15,0000.10,0000.34,0000.32,0000.14,-000.02,0000.16,19.3,25.5,10.5,07.2,0665.9,31.2
2021-06-28T23:57:00Z,00000200,40000000,,,,,,,0000.60,0000.43,0000.04,19.4,25.6,10.5,07.2,0665.9,31.2
2021-06-28T23:58:00Z,00000200,60000000,,,,,,,-000.66,-000.29,-000.09,19.1,25.6,10.9,07.3,0665.0,31.2
2021-06-28T23:59:00Z,00000200,20000000,,,,,,,-000.05,-000.08,-000.25,19.1,25.7,10.8,07.2,0665.0,31.2
